Etusivu
METAR-TAF:

METAR-TAF

Lentoasemat :

Vereeniging, Etelä-Afrikka

Leveyspiiri: 26-34-29S, Pituuspiiri: 027-57-45E, korkeus merenpinnasta: 1483 m

Tämänhetkinen sää

Tämä raportti tehtiin 51 minuuttia sitten, kello 19.00 UTC
Tuuli 4 kn lännestä
Lämpötila 9°C
Kosteus 40%
Ilmanpaine 1029 hPa

METAR: FAVV 221900Z AUTO 27004KT //// // ////// 09/M04 Q1029

Aika: 21:51 (19:51 UTC)


TAF: puuttuu

Säähavainnot ja -ennusteet yli 4000 lentoasemalta (METAR- ja TAF-raportit).

Käytössä olevat sääasemat on merkitty karttaan keltaisilla ja punaisilla pisteillä.

Aseta hiiri pisteen päälle nähdäksesi sääaseman nimen.

Klikkaa sitten nähdäksesi säähavainnot ja -ennusteet.

Kartan vaihtaminen: klikkaa mustalla rastilla varustettuja vihreitä pisteitä, niin voit zoomata sisään; viivalla varustettua vihreää pistettä, niin voit zoomata ulos tai vihreitä nuolia, niin pääset viereisille kartoille.


METAR-TAF: